Wind_Speed
50 49 49 48 47 47 46 47 48 47 47 47 46 46 45 44 43 41 41 41 41 41 41 41 41 41 41 41 41 40 39 39 38 37 37 37 36 36 36 36 35 35 35 35 35 35 35 35 34 33 33 32 32 31 30 29 28 28 27 24 22 22 23 23 22 21 26 31 33 34 32 29 25 24 24 22 25 25 25 25 24 27 28 27 26 27 28 27
52 52 50 50 49 48 47 47 48 48 48 47 46 46 46 46 45 43 41 40 40 40 40 40 41 41 40 41 40 40 39 39 38 37 37 37 36 37 36 36 35 35 35 35 35 35 35 35 34 34 33 32 32 31 30 29 28 27 25 24 22 23 24 25 25 26 30 32 33 34 30 29 25 21 23 25 24 24 25 26 27 28 27 27 28 28 28 28
54 53 52 51 50 49 48 47 48 48 48 47 47 46 46 47 46 45 42 40 40 40 40 40 40 40 40 40 39 39 39 39 37 37 38 37 36 37 36 36 35 35 35 35 35 35 35 35 34 33 32 32 31 31 30 30 28 27 25 23 23 24 24 26 28 28 30 32 33 32 29 26 22 19 25 26 23 23 26 27 29 29 26 26 29 28 27 29
56 55 54 52 51 50 49 48 48 48 48 47 47 46 46 46 46 47 45 42 40 39 39 39 39 39 39 39 39 38 38 38 36 36 37 36 36 36 35 35 35 35 35 35 35 35 35 34 34 33 32 31 31 30 30 29 27 27 25 23 24 26 27 28 30 29 30 31 30 30 28 25 21 22 27 26 23 24 27 27 29 30 28 28 28 28 29 30
56 55 54 53 51 50 49 48 48 48 48 47 47 46 45 44 45 46 46 45 41 39 39 39 39 39 39 39 38 37 37 37 36 36 36 35 35 35 34 34 34 34 34 34 34 34 34 33 33 32 31 30 30 29 29 28 27 27 25 24 25 27 28 29 30 29 28 29 27 27 27 26 25 25 27 26 22 24 27 27 28 31 31 29 27 28 28 28
56 54 53 53 51 50 49 48 48 48 48 47 47 45 44 44 43 43 45 46 43 40 39 39 39 39 39 38 38 37 37 36 35 35 34 34 34 33 34 33 33 33 33 33 33 33 33 32 32 31 30 29 29 27 27 28 28 27 24 23 25 26 27 27 27 27 27 25 24 25 28 29 28 27 26 25 22 25 28 27 29 32 32 30 27 27 27 26
55 54 52 52 51 50 48 48 47 47 48 48 46 45 44 43 43 42 42 43 44 42 39 39 39 39 39 38 38 37 36 35 34 34 33 34 34 33 33 32 32 32 32 32 32 32 32 31 31 30 29 28 27 27 27 27 27 27 23 23 25 26 26 25 26 28 27 23 20 24 28 29 28 27 26 25 25 27 28 27 30 34 32 30 29 27 27 28
54 52 51 51 50 49 48 47 46 47 47 47 46 45 44 43 43 42 40 40 42 42 40 39 39 39 39 38 38 37 36 36 35 34 33 33 33 32 32 32 32 31 32 32 32 32 31 30 30 29 28 26 27 28 28 27 27 25 23 23 25 25 26 26 26 26 26 23 21 24 27 27 27 27 26 26 27 26 25 27 33 36 31 27 28 27 27 28
52 51 51 50 49 48 47 46 45 46 46 47 46 44 43 42 42 42 40 39 39 40 40 40 39 39 38 38 38 37 36 36 36 32 32 33 32 32 32 31 31 31 32 32 31 31 30 29 28 27 27 27 29 29 29 29 26 24 25 25 24 25 26 25 24 24 25 23 23 24 25 26 27 28 28 27 25 23 25 29 34 37 30 24 25 25 27 28
50 50 50 49 47 46 46 45 44 45 45 46 45 43 42 41 41 41 39 38 37 37 38 39 39 39 39 38 38 38 37 37 35 31 31 33 32 32 32 31 31 31 31 31 31 30 29 28 27 27 28 29 30 30 28 26 24 25 26 24 23 24 24 23 23 23 23 23 23 24 25 26 28 28 28 24 22 22 25 30 34 35 28 23 24 24 26 27
49 49 48 47 45 44 44 44 44 44 44 45 44 43 42 41 40 40 39 37 36 36 37 38 38 38 38 37 37 37 37 36 33 31 32 32 32 32 32 32 31 30 30 30 29 29 29 29 29 30 30 30 29 27 24 23 23 26 24 23 23 22 22 22 21 20 22 23 23 24 25 27 27 27 27 23 22 23 25 30 33 32 28 25 24 23 25 25
47 46 46 44 43 43 43 43 43 42 43 44 43 42 42 41 39 38 38 36 35 35 35 36 37 37 37 36 36 37 37 34 31 32 33 32 32 32 31 32 31 30 29 28 28 28 28 29 29 29 29 29 27 25 25 24 24 24 23 21 21 22 21 20 19 20 22 23 23 24 26 26 25 24 24 24 22 23 25 30 32 29 26 24 22 21 21 22
45 44 43 42 41 41 41 42 42 42 42 43 42 42 42 40 39 37 36 35 35 34 34 35 35 35 34 34 35 35 34 32 31 33 33 32 32 32 31 31 31 30 29 28 28 28 28 28 27 27 28 26 24 26 27 24 22 24 23 21 21 20 19 18 19 21 21 21 22 25 26 24 21 21 22 22 22 23 25 29 30 26 22 21 21 20 19 20
42 41 40 40 40 40 41 42 42 42 42 42 42 41 41 39 38 36 35 35 34 34 34 34 33 33 33 33 34 33 31 31 32 32 31 31 31 31 31 30 30 29 28 28 27 26 26 25 25 27 26 22 23 28 25 21 22 23 22 21 20 19 18 18 19 20 20 19 21 25 25 22 21 20 20 18 16 19 23 28 29 22 18 19 20 21 20 19
39 39 39 40 40 40 40 42 42 42 42 41 41 40 40 38 36 35 35 34 34 33 33 33 33 32 31 32 32 31 30 31 31 31 30 30 31 31 30 29 29 28 27 27 25 25 25 24 25 27 26 24 26 28 23 20 22 22 20 19 18 17 17 18 19 21 20 20 23 26 23 19 19 20 20 19 17 15 21 28 27 19 17 18 18 20 20 18
38 39 39 40 40 40 40 42 42 42 41 40 39 39 38 37 35 34 34 33 33 33 32 32 31 30 30 30 29 28 29 29 29 29 29 29 30 30 29 28 27 26 26 26 25 26 26 25 26 27 26 26 28 26 23 23 22 21 20 18 17 17 17 16 20 24 20 20 26 28 23 16 14 17 18 21 20 16 21 28 25 19 18 18 17 19 20 19
38 39 39 40 40 40 40 41 42 42 40 39 38 38 37 35 34 33 33 32 32 31 31 30 29 28 28 27 25 27 29 29 29 28 28 28 29 29 28 27 26 26 26 26 26 26 26 26 26 26 26 26 26 24 22 21 20 20 19 17 16 16 18 16 20 25 20 20 26 26 22 13 10 16 19 20 19 15 21 28 25 20 19 19 19 19 20 20
38 39 39 40 39 39 40 41 42 41 39 38 38 37 36 34 34 33 32 31 30 30 29 28 27 26 27 26 26 29 30 28 27 27 28 28 28 28 27 26 26 25 26 26 25 26 26 26 26 27 26 26 24 22 20 19 19 20 19 17 14 14 15 11 13 21 19 21 25 24 22 12 8 15 17 17 16 14 20 27 27 23 22 22 21 21 20 20
38 39 39 40 40 39 39 40 42 41 39 38 38 36 35 34 34 33 32 31 30 28 28 28 26 25 26 25 27 28 26 25 26 27 28 28 28 27 26 26 26 26 26 25 25 26 26 26 27 26 25 23 21 20 19 18 20 22 22 20 17 16 13 5 7 16 18 20 23 25 25 17 10 14 18 17 14 16 21 25 27 26 25 24 24 22 20 20
37 37 38 39 39 38 38 40 41 40 39 38 37 36 36 34 34 33 32 30 28 28 29 27 24 25 25 24 26 26 23 23 26 28 28 28 28 27 27 27 27 26 26 25 26 26 26 27 26 23 21 20 20 20 19 20 22 22 23 22 22 21 11 5 8 15 17 20 23 27 27 21 14 13 17 19 18 20 23 25 26 28 28 26 24 22 20 20
35 35 37 36 36 37 38 40 41 40 39 38 36 36 36 34 33 32 29 27 27 28 29 26 25 26 25 25 27 25 22 23 26 27 28 28 28 27 27 27 26 25 25 25 27 28 28 26 23 20 20 21 22 23 22 22 22 22 25 26 26 23 13 10 8 14 18 22 24 28 28 24 20 14 15 19 20 22 23 23 26 29 31 30 27 24 22 22
34 34 36 35 35 36 37 39 40 39 39 37 36 36 34 32 32 30 27 27 27 29 28 26 26 26 26 28 28 23 21 24 25 25 26 27 27 26 25 26 25 24 25 27 28 28 26 22 20 20 22 24 24 24 24 22 21 23 26 28 27 23 21 17 11 14 24 25 24 29 31 30 26 20 18 19 21 24 24 21 23 28 31 32 33 29 26 23
33 33 34 34 35 36 37 39 40 39 39 37 36 35 32 30 31 30 28 27 27 28 27 25 25 25 27 28 26 23 22 23 25 25 25 25 25 25 25 26 25 25 27 28 27 25 22 21 22 24 26 26 25 24 23 22 24 26 27 29 26 22 26 24 19 21 25 22 23 28 32 33 29 22 17 15 17 21 20 17 18 24 30 33 36 34 30 26
31 31 32 34 35 36 37 39 40 39 38 37 36 33 30 30 31 29 28 28 26 25 24 23 24 25 26 26 25 24 24 26 27 26 24 23 25 26 26 25 24 25 26 26 25 23 21 23 25 27 27 27 26 26 26 27 28 28 29 29 22 20 28 30 26 25 24 21 24 27 30 34 31 24 17 15 15 14 13 13 12 15 22 30 35 34 32 29
29 29 30 33 34 36 37 38 39 38 38 37 35 31 29 30 30 28 28 27 25 23 22 22 22 23 24 26 24 24 27 29 29 28 24 23 26 26 25 25 25 26 25 25 25 23 23 25 27 27 27 27 28 27 29 31 29 27 28 25 17 17 24 29 29 28 27 28 28 30 32 33 30 23 14 12 14 12 12 13 11 9 16 24 30 35 34 31
27 28 30 32 34 35 37 38 38 38 38 38 34 31 30 30 29 28 27 25 24 23 22 21 21 21 22 23 22 23 28 29 29 30 28 26 28 27 25 26 26 26 25 25 26 25 24 26 28 29 28 29 30 30 32 32 26 22 23 21 18 19 22 26 29 29 30 29 28 29 29 30 30 23 14 12 14 15 17 19 17 15 18 23 29 35 35 32
26 29 30 32 33 34 36 38 38 38 37 36 33 31 30 30 29 28 26 24 23 22 20 19 19 19 20 21 21 24 26 27 29 32 29 27 29 28 27 28 27 26 26 27 28 26 24 26 28 29 30 30 31 31 29 26 22 20 20 18 18 20 22 24 25 25 26 28 29 29 28 32 33 23 15 14 14 17 21 21 20 20 22 24 28 32 31 30
27 30 31 32 33 34 36 37 38 37 35 33 31 31 30 30 29 27 25 23 22 22 19 17 16 16 18 20 20 21 23 24 27 28 25 26 30 29 28 28 26 26 26 28 29 25 23 25 26 28 30 31 29 25 20 20 21 18 16 18 19 21 21 21 24 26 28 31 32 30 32 36 34 25 17 13 14 19 21 20 18 18 20 22 26 29 28 27
27 30 32 32 32 34 36 36 36 35 34 34 33 32 31 30 28 26 23 23 22 20 17 15 15 16 17 17 18 20 21 21 23 24 24 26 29 28 26 25 24 25 28 28 26 24 22 22 25 29 31 30 26 20 18 21 20 15 16 20 22 22 21 21 25 26 26 28 27 24 29 34 33 28 21 17 18 20 20 23 19 16 18 23 26 28 28 27
27 30 32 32 32 33 35 36 35 34 35 35 34 33 31 29 26 24 23 22 18 15 15 14 15 17 16 16 18 18 18 20 24 26 24 25 26 26 24 25 25 26 28 27 26 25 23 22 24 29 29 28 25 21 20 21 18 17 20 22 22 22 23 23 20 18 20 23 20 17 20 26 28 26 20 20 23 21 20 23 23 20 22 26 29 30 31 29
26 28 30 31 31 33 34 34 33 34 33 33 33 33 31 28 25 23 21 19 15 13 13 14 16 16 15 15 16 17 18 21 25 25 22 22 25 25 24 25 26 26 27 28 27 24 23 26 27 26 26 25 22 19 19 20 20 21 22 23 23 24 26 24 16 16 21 21 16 14 15 18 21 23 21 22 23 23 22 23 24 26 27 29 32 33 35 34
25 27 28 30 31 32 33 32 32 33 32 32 32 31 29 27 25 23 19 17 16 14 11 12 15 15 15 16 15 16 18 21 23 22 19 20 22 23 23 24 24 24 25 25 25 24 24 28 27 24 25 23 17 15 18 21 23 21 20 22 23 24 25 23 19 20 22 19 15 14 13 14 17 21 23 24 23 22 23 24 25 26 28 32 34 35 38 38
25 26 27 29 30 32 32 33 34 34 33 33 31 29 28 26 23 20 19 16 13 11 9 10 12 13 16 16 15 16 17 19 21 18 18 20 21 21 21 22 22 22 21 21 21 20 23 27 26 24 25 21 16 15 17 19 21 19 18 21 23 23 23 22 20 20 20 18 16 14 13 14 18 22 24 26 26 23 22 24 24 23 26 31 34 36 38 38
25 25 27 28 29 31 32 33 33 32 31 31 30 29 27 24 20 19 19 17 11 9 5 4 6 10 15 14 13 13 14 17 19 17 18 21 21 21 20 21 22 21 20 21 21 20 23 25 24 24 23 19 17 18 16 17 19 18 17 19 21 22 21 19 18 17 16 17 17 16 16 17 21 24 25 27 27 24 23 22 22 23 25 27 30 32 34 36
25 25 27 28 29 30 31 31 31 30 30 29 28 28 23 22 22 20 20 17 12 12 8 6 7 8 14 15 10 9 8 9 12 14 17 20 20 19 19 19 20 19 20 23 23 22 23 22 20 21 20 18 16 16 16 18 20 18 17 16 16 18 19 19 18 17 17 19 21 20 18 19 21 23 24 24 24 24 24 23 23 24 25 26 28 29 31 32
25 25 26 27 28 29 29 29 29 29 29 28 26 24 22 25 25 22 22 17 14 15 14 15 14 8 11 15 12 12 11 7 9 11 13 18 19 18 18 18 19 17 18 20 21 21 20 19 19 18 17 17 16 14 16 19 19 18 16 13 11 12 17 19 18 18 20 22 23 21 18 19 20 22 24 23 23 24 23 22 22 22 24 25 27 28 29 29
25 26 25 26 27 27 28 28 28 27 28 26 23 24 26 28 27 25 25 20 19 21 16 17 17 10 10 14 17 19 17 13 14 12 9 13 14 15 16 17 18 17 16 18 19 21 20 18 19 19 16 16 15 14 17 19 19 19 16 12 11 10 14 18 18 19 22 23 24 23 22 21 21 23 24 24 24 24 22 21 21 21 21 23 25 26 26 27
26 26 26 25 25 26 26 27 27 27 25 24 26 29 30 29 29 31 30 24 24 22 16 16 18 14 11 13 15 17 17 16 18 15 11 11 10 12 13 14 16 14 14 17 19 22 23 20 20 20 17 16 16 16 18 19 20 21 18 16 16 15 16 17 18 21 23 23 23 22 21 22 22 23 24 23 23 23 22 21 21 21 21 23 25 25 26 26
27 28 27 27 26 25 25 26 27 25 24 26 29 30 30 27 27 30 32 29 27 21 15 18 22 21 18 14 12 14 15 17 19 17 15 16 15 16 15 15 17 14 14 19 21 23 25 24 23 22 19 17 17 17 17 16 17 21 22 21 21 22 22 20 20 22 22 22 23 21 20 22 22 22 22 22 22 22 23 24 25 25 25 25 24 24 24 24
29 29 28 27 26 26 26 26 25 24 24 26 28 29 30 26 23 24 28 31 29 20 17 21 23 26 26 20 17 17 19 19 19 19 20 21 21 22 21 21 23 22 21 23 24 24 26 25 24 21 19 19 17 17 16 14 15 19 23 24 21 21 24 24 23 22 21 21 22 21 22 24 23 22 22 22 22 21 21 22 24 24 24 23 21 20 19 18
28 26 26 26 26 26 25 24 23 23 24 25 27 29 30 28 26 24 24 27 26 20 19 22 20 25 30 26 24 24 24 22 21 22 25 27 26 26 26 27 27 25 23 21 22 24 27 27 25 23 22 22 19 15 12 15 21 22 21 22 23 23 23 23 24 23 21 21 22 22 24 25 24 23 23 22 21 20 20 20 21 22 20 17 15 13 14 14
25 23 24 25 25 25 24 24 23 24 25 27 29 30 30 29 27 22 21 24 23 21 22 23 22 24 31 30 28 27 25 23 22 24 26 29 30 29 29 29 29 27 24 22 24 26 28 29 28 26 25 24 22 17 13 19 28 27 23 24 26 27 26 25 24 23 22 22 23 23 24 26 26 25 23 21 20 21 20 18 17 18 18 13 10 10 12 14
23 20 21 23 24 24 25 25 25 25 26 28 29 29 29 28 23 18 20 22 21 22 24 24 24 25 28 31 31 29 27 24 23 25 27 29 31 31 30 29 29 30 28 27 28 28 28 28 28 28 27 25 24 24 23 25 29 29 27 28 27 26 27 28 28 26 24 24 24 23 24 26 26 24 22 21 20 21 21 17 15 13 13 12 10 10 13 14
22 19 20 21 22 23 23 23 24 25 25 24 23 22 22 21 18 17 20 22 23 25 26 25 26 27 28 30 31 31 28 24 24 26 26 27 29 31 31 29 28 31 32 32 31 30 28 26 25 26 28 28 27 27 26 27 28 28 29 30 29 27 27 28 29 29 27 27 27 26 26 26 25 23 22 19 18 19 19 18 18 15 13 12 11 12 13 15
21 19 20 21 21 22 22 21 21 22 21 19 18 17 16 16 15 17 20 22 24 26 25 26 28 28 29 30 29 30 29 26 26 27 25 25 25 27 30 29 28 31 34 35 33 31 29 27 25 25 27 29 31 30 28 27 27 29 30 30 29 27 26 27 28 29 29 30 30 29 29 28 25 23 22 19 17 15 13 13 15 15 15 13 12 12 14 16
19 19 21 21 21 21 22 22 20 19 18 17 16 16 15 15 15 17 20 21 22 22 22 23 25 27 27 28 28 30 30 29 29 28 27 25 23 24 27 28 29 31 34 36 35 32 30 28 26 25 27 29 30 30 30 30 29 28 28 29 29 27 26 26 27 28 28 29 31 31 30 29 27 27 26 24 21 17 14 13 14 13 14 14 13 14 14 16
17 18 21 22 22 20 20 20 19 18 17 16 15 15 15 14 14 16 18 19 19 18 18 21 24 24 24 25 26 27 29 29 29 30 31 29 26 24 25 26 28 31 33 34 34 34 32 30 27 25 26 27 30 30 30 31 32 30 29 28 29 28 26 26 28 29 28 29 31 31 29 27 28 27 24 23 22 21 18 17 16 14 13 13 14 15 16 17
17 18 20 21 22 20 18 18 18 16 16 16 15 15 15 13 13 14 15 16 18 18 19 20 21 22 22 23 25 25 26 27 29 32 32 30 28 26 25 25 26 28 31 32 32 33 35 34 30 26 24 26 28 30 30 30 29 30 30 28 29 30 28 27 29 30 30 30 31 29 27 26 26 22 19 18 20 20 18 16 16 15 14 14 15 16 17 18
17 17 19 20 21 21 19 18 18 16 14 14 14 14 14 13 13 13 13 14 16 18 19 19 18 19 20 22 24 26 26 27 29 31 31 29 27 26 25 24 23 24 26 27 25 25 28 32 31 28 26 25 26 29 31 30 28 27 27 26 26 28 28 28 29 31 31 31 32 31 30 30 30 29 26 24 21 19 18 18 17 16 14 14 15 17 18 18
17 17 18 19 19 19 18 18 17 15 14 14 13 13 13 13 13 14 14 14 15 16 18 18 19 20 21 23 25 25 26 28 30 30 29 28 27 25 24 23 23 24 24 23 22 20 21 25 27 28 27 26 26 26 27 28 29 29 29 28 26 25 26 28 30 30 30 31 31 32 30 28 29 30 28 25 22 20 20 20 19 17 14 14 16 18 19 19
17 18 18 18 18 19 18 17 16 15 14 14 13 13 13 13 14 15 14 13 13 15 17 18 18 19 21 23 22 21 23 27 29 29 29 30 29 27 25 24 23 24 22 20 19 19 19 21 23 25 25 25 26 26 23 24 26 28 30 30 27 24 24 27 30 30 30 30 29 29 27 23 22 22 22 22 22 23 22 21 20 18 17 16 18 20 21 21
19 20 20 18 18 19 18 16 16 15 14 13 13 13 13 14 15 14 12 12 13 15 16 15 16 17 19 19 17 16 17 20 23 24 25 26 27 26 25 24 24 25 24 21 18 18 19 20 21 22 23 23 25 26 25 24 24 25 27 28 26 24 22 23 26 29 29 28 28 28 27 25 23 23 22 23 24 24 23 22 21 20 20 20 21 22 24 24
Wind_Direction
268 267 267 266 265 263 260 257 256 255 253 251 250 250 249 248 248 248 248 248 247 247 247 247 247 246 246 245 244 243 242 242 242 242 243 243 243 244 244 244 245 245 245 246 246 247 247 247 247 247 247 247 248 249 249 249 249 249 249 249 247 243 241 239 231 225 233 243 250 254 259 262 264 268 271 271 268 270 272 273 272 271 273 275 276 277 278 280
268 268 267 266 265 263 261 257 256 254 252 250 249 249 249 247 246 246 246 247 246 246 245 245 245 245 244 244 244 243 242 242 241 241 242 241 242 243 243 244 244 244 245 245 245 246 246 247 247 246 246 246 245 246 246 247 248 247 247 246 243 243 244 244 236 232 243 249 253 257 262 265 269 272 268 265 268 272 271 269 268 267 269 274 275 275 277 277
268 267 267 266 265 263 261 258 255 254 252 249 248 248 248 247 246 244 245 246 245 245 244 243 243 243 243 242 242 242 242 241 240 241 242 241 242 243 243 243 243 243 244 244 245 245 245 246 246 245 244 244 244 244 244 245 246 246 246 244 242 242 242 245 243 243 250 254 257 262 265 268 275 273 264 265 271 273 270 267 268 269 269 272 274 275 274 273
267 267 266 265 264 263 261 258 255 253 251 248 247 246 246 247 246 244 243 244 245 244 244 243 242 241 241 240 240 240 240 240 239 240 241 240 241 242 242 243 243 243 243 244 244 244 245 245 245 244 243 243 242 241 242 242 242 243 243 240 241 243 244 246 247 248 253 256 260 266 269 269 268 264 263 266 271 272 271 270 271 274 273 272 274 276 274 273
267 266 265 264 263 261 260 257 254 252 250 247 245 245 244 245 246 245 242 242 242 243 243 242 241 241 240 239 238 238 238 238 238 240 240 240 241 241 242 242 242 242 243 243 243 243 243 244 243 243 242 241 240 240 241 240 239 241 240 239 243 245 246 249 252 253 255 259 262 265 268 268 263 262 265 268 273 272 270 271 273 276 276 274 275 277 277 274
266 265 264 263 261 260 258 255 253 251 249 246 244 243 243 243 245 246 243 240 239 241 241 241 241 240 239 238 237 236 237 237 237 238 239 239 240 240 240 241 241 242 242 242 243 242 242 242 242 241 241 240 238 237 238 239 240 240 238 239 243 245 247 250 253 253 253 257 261 261 262 263 263 263 266 269 270 269 270 274 276 275 274 276 276 274 271 267
265 263 262 260 259 257 255 253 251 250 248 245 243 242 241 241 242 244 243 240 237 237 239 239 239 238 238 237 236 236 236 235 235 236 237 238 238 239 239 240 241 242 242 242 242 241 241 240 240 239 239 237 236 235 236 238 240 240 238 238 242 244 246 247 250 254 254 252 253 256 259 262 265 266 268 270 269 269 274 277 274 272 273 278 279 272 267 265
263 261 259 257 256 254 251 250 249 248 247 244 242 240 239 239 240 241 242 240 237 235 235 237 237 236 236 235 235 234 234 233 233 234 235 237 238 238 239 239 240 241 240 241 240 240 240 239 238 237 235 233 232 233 234 236 238 239 239 239 241 244 246 248 251 256 256 253 248 252 259 264 268 269 268 270 271 272 275 274 271 272 275 278 277 272 269 267
259 257 255 254 253 251 248 246 246 246 245 242 240 239 238 237 237 238 238 238 237 234 233 234 235 235 234 234 233 232 232 233 232 231 233 235 236 236 237 237 237 238 239 239 239 239 238 237 236 233 231 229 231 233 235 236 238 238 238 238 239 243 247 249 251 254 256 256 253 253 259 264 267 269 271 273 275 273 270 270 270 273 277 274 271 269 267 266
256 254 252 251 250 248 246 244 243 243 242 241 238 237 237 235 235 235 236 235 234 233 232 232 233 233 232 232 232 232 231 231 230 227 229 232 232 233 233 234 234 235 236 236 237 236 234 233 230 227 228 230 234 236 239 241 240 239 238 239 241 243 247 250 251 254 257 258 257 257 259 262 266 270 273 274 271 267 264 267 270 274 275 270 267 266 264 266
252 250 249 249 247 245 243 241 240 240 240 239 237 236 236 234 233 233 233 233 231 230 230 230 230 230 230 230 230 230 229 229 229 227 228 229 230 230 231 231 232 231 232 232 233 232 231 230 228 228 229 232 235 237 239 241 240 241 241 241 242 243 246 249 251 253 256 258 260 262 262 265 270 273 274 271 265 262 259 264 271 273 273 270 267 265 263 266
249 248 247 245 243 242 241 239 237 237 237 236 235 234 234 233 231 230 230 230 230 228 227 228 227 227 227 227 227 228 227 226 226 226 226 226 227 227 228 229 229 228 228 228 228 228 228 229 230 232 233 234 234 234 237 237 238 243 243 241 240 241 244 246 250 253 256 261 265 265 267 270 273 273 272 269 264 261 259 264 269 269 271 272 267 264 264 266
247 245 243 241 239 240 239 237 235 234 235 234 233 232 232 231 229 227 227 227 227 226 225 225 225 224 224 224 224 225 225 222 221 224 224 223 224 224 225 226 226 226 226 226 226 226 227 228 229 231 233 234 233 236 238 236 238 243 241 238 237 238 242 245 250 255 260 267 270 270 271 272 272 270 269 270 269 265 263 265 267 268 271 273 272 273 270 266
245 241 238 237 237 238 237 235 233 232 233 232 231 231 230 229 227 225 224 224 224 223 223 223 222 221 220 221 222 222 221 219 218 221 221 221 222 222 223 223 223 224 224 226 227 228 229 229 227 229 231 230 232 238 240 236 238 240 238 236 236 239 244 249 254 259 263 266 269 271 271 272 270 266 267 269 267 269 270 267 269 275 277 276 278 280 279 274
241 237 235 234 235 236 234 232 231 230 230 229 228 228 228 227 225 222 221 220 220 220 220 220 219 219 218 219 220 219 217 217 217 218 218 219 220 221 221 221 221 221 222 223 224 225 226 225 224 227 227 224 229 234 233 231 232 232 234 234 236 241 249 254 257 260 265 267 266 267 267 271 272 268 268 262 255 266 273 269 272 281 281 279 282 284 286 286
237 234 233 233 234 233 232 230 229 229 227 226 226 225 225 224 222 220 217 217 217 217 217 217 216 215 216 217 218 217 215 215 216 215 216 216 217 219 219 218 218 218 219 220 220 221 223 222 222 226 225 225 231 233 229 227 226 227 231 234 238 243 249 255 260 262 271 275 270 269 269 274 274 267 266 265 262 266 270 272 277 282 284 285 287 289 291 290
234 234 232 233 234 232 230 229 228 227 224 223 223 222 222 220 219 217 213 212 212 212 212 213 212 212 214 214 213 216 214 212 214 213 213 214 215 216 216 215 215 215 217 217 218 221 223 223 224 226 225 227 231 231 230 228 227 229 229 232 238 245 253 260 264 267 276 280 275 273 272 277 278 266 264 266 267 265 270 277 282 282 286 288 287 289 291 291
234 235 233 232 235 232 229 228 226 224 221 219 219 219 218 216 215 213 210 207 206 207 208 208 207 207 210 209 209 214 212 210 212 212 212 213 213 214 214 214 214 215 216 217 218 221 222 224 225 226 225 226 229 230 231 228 226 226 222 222 228 242 257 266 273 273 275 276 276 278 275 275 277 270 268 265 267 269 268 273 281 288 290 289 287 287 289 290
235 236 235 233 235 232 227 225 224 221 218 216 216 215 213 212 212 210 206 203 202 203 204 204 202 204 206 206 209 213 211 210 212 213 214 214 214 214 213 214 215 215 216 216 218 221 223 225 226 227 228 229 231 231 228 223 221 222 223 223 226 239 249 231 249 266 270 273 279 280 275 272 265 263 262 255 255 261 261 266 279 289 288 284 282 283 288 289
239 239 236 234 234 230 225 223 221 217 214 214 213 211 211 210 210 207 203 200 201 202 203 201 200 204 205 204 209 210 206 209 212 212 214 215 214 213 213 214 215 215 216 217 220 222 223 226 227 227 228 227 228 227 222 219 221 224 227 229 233 240 235 173 219 254 267 270 273 272 271 275 273 257 254 256 256 257 263 276 286 287 284 281 278 281 289 289
240 240 240 237 234 229 222 221 218 213 211 210 209 209 209 209 209 206 203 201 201 204 205 200 200 206 205 206 210 206 200 207 211 211 212 214 214 212 212 215 215 214 215 216 220 223 223 225 225 223 225 223 222 222 218 217 222 228 232 234 238 234 203 167 216 253 260 260 265 272 276 278 275 263 255 262 261 258 268 284 289 289 289 287 284 286 290 289
238 241 243 240 234 227 220 217 214 210 209 207 207 208 208 209 209 205 202 202 203 205 206 202 203 208 208 211 213 204 202 211 213 211 211 213 213 211 210 213 213 212 214 216 220 224 224 223 220 217 220 220 220 221 220 217 219 228 234 239 243 229 200 185 195 231 245 254 262 268 271 270 269 272 270 262 255 256 266 276 279 283 287 287 286 287 287 285
236 240 243 239 231 224 218 214 211 208 206 204 205 207 207 209 209 204 201 202 203 206 206 203 204 210 213 216 215 204 203 213 214 210 208 210 211 208 207 209 209 209 215 218 221 223 220 215 212 213 216 218 218 220 220 218 220 225 231 239 243 228 211 201 191 212 233 252 263 264 270 274 275 277 275 266 257 254 260 263 265 274 280 282 284 285 284 280
238 240 239 233 225 218 214 210 208 206 205 203 204 205 205 209 209 204 201 201 202 204 207 205 204 210 215 219 216 206 204 211 215 212 205 205 209 207 205 205 206 209 215 219 219 217 216 215 215 217 219 221 223 224 225 225 225 228 234 242 245 232 224 216 207 215 224 237 254 261 268 273 278 280 275 270 267 260 260 261 257 267 279 284 284 285 284 278
238 239 231 224 218 211 209 207 206 205 203 202 203 204 205 209 209 204 201 201 201 203 206 206 205 209 215 219 217 210 210 213 217 215 204 204 211 208 203 204 207 210 214 220 221 217 218 223 224 225 226 228 229 230 232 233 232 233 239 245 241 228 231 227 217 217 219 226 240 248 255 264 271 273 264 261 267 264 260 254 241 253 276 280 279 278 280 279
235 231 222 216 211 206 204 204 205 203 201 201 201 202 206 209 209 205 203 200 200 204 205 205 208 211 216 220 217 213 215 214 217 217 207 208 215 211 206 207 210 212 214 220 224 223 224 230 233 233 231 231 232 231 235 239 235 230 232 235 228 223 229 231 226 225 231 237 242 244 250 260 263 264 272 286 281 268 261 255 246 249 262 265 264 267 272 278
227 221 214 210 206 203 202 203 204 202 200 200 200 201 205 209 209 206 204 202 203 204 202 202 206 210 213 216 216 216 217 214 218 220 211 212 221 217 213 213 211 215 218 221 226 225 226 231 236 239 236 233 235 235 236 238 230 219 221 225 226 225 226 230 232 235 242 248 246 243 247 256 260 266 287 294 281 269 266 265 257 250 252 258 263 267 272 278
218 213 208 205 202 201 201 202 203 201 198 198 200 203 205 208 208 206 204 203 205 202 198 199 200 206 211 213 213 215 216 213 219 223 212 213 223 220 218 219 215 217 220 224 230 226 221 227 232 235 237 236 237 236 230 228 222 211 211 217 218 220 222 224 226 228 234 241 243 239 242 255 263 267 272 270 263 260 251 246 254 259 255 257 265 271 273 275
210 206 202 201 200 200 200 202 202 199 196 196 199 202 205 207 207 205 202 203 206 201 196 196 198 206 211 210 210 211 212 210 215 221 209 207 220 220 217 218 213 214 217 219 225 222 211 217 229 233 235 238 239 233 227 229 223 204 205 217 220 221 220 221 225 231 239 248 251 245 243 252 262 266 264 254 250 251 239 229 239 257 257 256 264 270 270 269
205 201 198 198 198 199 200 201 200 197 197 198 199 200 203 205 204 203 202 200 202 200 196 198 201 207 209 208 209 207 206 207 212 218 209 202 214 217 213 213 210 210 214 214 216 217 210 207 220 232 235 237 238 234 229 230 222 205 207 218 223 223 225 227 231 241 251 256 261 261 252 250 255 260 256 246 243 242 238 231 232 240 247 253 259 261 261 262
199 196 194 195 197 198 199 199 197 195 196 198 200 201 201 201 201 201 199 194 196 196 192 200 204 205 207 207 208 203 202 209 215 217 211 204 211 214 212 214 213 209 213 213 210 213 216 213 215 224 234 235 233 233 230 226 222 212 210 219 223 224 233 241 241 243 251 260 267 264 254 247 250 254 251 248 247 244 243 238 235 238 242 247 253 253 255 258
195 192 191 192 194 196 195 192 192 193 194 196 200 201 199 199 199 198 188 180 192 196 190 204 207 203 206 205 203 200 200 211 219 218 212 208 212 216 215 219 220 216 219 220 215 210 215 222 220 218 230 234 226 226 229 228 228 224 218 224 228 229 239 247 245 245 252 260 260 247 239 239 245 253 254 255 255 251 249 245 240 241 242 244 247 247 249 256
191 188 188 189 190 191 189 189 191 193 194 194 197 197 198 199 196 189 175 168 182 194 199 216 205 196 205 206 205 203 201 212 221 219 214 210 212 214 214 218 220 219 221 226 228 219 215 225 228 223 229 236 234 236 236 231 231 229 225 230 234 234 241 248 249 252 255 257 255 245 235 230 232 243 250 253 256 254 250 247 243 244 246 246 246 245 248 254
188 185 185 187 188 187 187 188 190 192 194 195 194 195 197 195 182 171 167 163 157 155 175 231 212 197 200 198 198 198 198 212 218 216 217 216 213 212 212 216 218 214 212 218 225 221 213 219 231 236 235 235 239 239 232 231 232 228 224 230 236 237 238 242 248 252 255 259 258 250 241 237 236 243 248 250 254 256 253 252 249 248 251 252 252 250 251 254
187 184 185 186 186 187 188 188 189 191 193 194 195 197 192 177 163 153 157 163 157 143 148 190 198 188 188 184 180 188 201 226 224 213 218 222 219 215 213 218 222 215 209 213 218 220 220 217 224 239 238 224 220 221 220 227 231 230 227 226 233 240 238 235 235 237 241 249 253 248 243 242 243 248 253 253 255 258 258 258 258 258 259 259 258 256 255 256
186 186 186 187 187 188 188 188 190 191 192 195 196 190 173 160 158 154 153 161 164 158 167 192 189 166 175 172 165 190 210 236 237 218 213 220 221 217 214 217 223 219 214 217 216 219 228 225 220 229 231 220 210 205 212 220 224 230 234 235 242 245 239 232 225 229 238 244 252 256 252 249 248 250 254 256 259 261 261 260 261 263 264 263 263 261 261 261
187 188 188 189 189 189 189 190 191 193 196 195 184 168 158 157 165 167 163 163 164 163 170 190 190 179 174 155 153 183 196 204 230 235 214 214 219 219 216 217 222 218 214 219 216 213 219 222 224 221 214 220 223 210 206 209 216 225 225 230 246 245 237 228 218 225 238 242 249 254 254 253 253 254 256 259 262 264 263 259 259 261 263 266 267 267 267 266
188 189 190 190 189 190 192 193 194 194 191 179 163 158 158 163 173 176 172 170 169 163 158 167 172 165 155 142 155 189 194 197 224 231 205 200 206 210 207 204 212 210 207 215 214 216 218 215 223 223 204 209 227 223 213 204 207 218 215 208 217 226 236 234 226 231 239 244 249 254 256 256 255 256 259 260 262 264 263 262 262 260 261 265 269 273 272 270
186 189 191 192 189 188 190 190 188 181 171 160 155 160 165 172 184 182 175 180 181 173 166 173 168 154 149 150 172 214 220 209 219 220 202 193 189 197 197 188 197 196 195 207 208 217 226 219 221 225 207 203 220 224 216 203 201 213 218 212 205 210 222 229 231 237 241 246 252 255 255 255 254 254 257 258 261 264 266 270 272 269 267 268 270 273 272 269
178 181 184 186 182 177 177 177 171 161 155 154 156 166 171 180 199 193 181 189 193 181 178 191 180 159 157 162 170 203 224 217 212 211 205 198 189 195 196 188 196 201 198 200 198 208 225 223 221 223 206 199 219 227 216 207 209 215 220 222 218 213 218 225 230 234 239 246 253 255 254 256 257 256 258 260 262 264 269 277 280 278 275 271 269 269 265 259
159 161 165 168 166 164 163 160 155 151 152 155 162 174 178 186 203 199 189 198 199 185 186 203 197 168 164 172 173 186 207 212 209 208 206 204 198 198 197 192 198 207 205 202 199 205 218 220 218 218 206 198 207 225 218 201 206 216 219 219 222 220 217 222 230 234 239 246 250 253 254 257 259 259 261 262 261 265 272 281 282 278 275 269 259 255 250 246
145 148 153 155 155 155 154 153 153 154 157 162 171 180 185 195 203 193 190 205 202 191 194 204 207 186 175 179 180 185 196 200 205 211 208 207 206 204 203 199 199 204 205 202 204 209 216 220 215 210 209 202 194 200 210 199 200 209 215 214 219 222 219 219 225 232 239 243 245 247 250 256 260 262 263 263 264 267 271 281 285 274 267 262 250 244 245 246
140 150 154 152 153 154 154 156 158 159 166 174 180 184 189 201 208 191 188 204 203 200 203 204 207 201 188 186 187 192 196 192 198 210 209 207 210 209 208 206 202 201 201 201 207 213 218 224 221 211 211 211 200 196 205 208 203 203 210 215 219 222 222 222 225 229 232 237 242 246 249 255 260 263 264 266 269 267 264 277 288 274 261 261 260 257 255 255
141 157 159 154 155 155 155 158 161 166 175 182 186 189 193 203 212 200 193 200 203 204 206 205 207 207 201 198 200 204 206 202 206 215 212 208 212 213 211 209 206 204 203 202 207 213 219 230 231 219 212 212 209 205 206 211 211 209 213 217 218 219 220 222 228 230 230 234 240 244 248 253 259 262 261 265 272 270 265 273 276 269 265 266 261 257 257 257
144 160 159 157 159 157 157 162 167 173 179 184 188 191 196 201 205 204 202 205 209 208 206 207 210 212 211 210 210 213 215 215 219 223 219 213 215 217 215 213 210 209 208 208 211 214 221 230 234 227 217 211 211 214 215 216 216 217 219 220 220 222 223 223 228 232 234 238 241 243 247 252 258 262 263 267 276 275 268 271 271 266 265 261 252 252 254 254
145 160 159 161 165 162 162 166 171 176 179 185 191 191 196 201 201 204 208 210 214 215 211 212 216 219 219 218 216 217 220 222 224 226 224 221 220 219 218 218 216 213 211 212 216 219 222 227 231 227 222 217 216 219 223 225 224 224 226 225 225 229 231 229 231 234 238 243 246 247 249 253 260 267 270 271 272 271 268 270 274 270 263 256 251 253 255 255
147 164 162 163 167 165 166 168 168 173 180 187 192 193 197 200 198 205 211 212 215 216 214 216 219 221 223 224 222 221 223 225 226 227 225 224 224 223 221 220 220 218 216 215 219 223 224 228 230 227 223 220 220 223 226 229 231 233 235 233 229 231 234 233 232 235 240 244 248 250 253 258 263 269 270 267 264 267 270 269 269 267 261 258 257 257 257 258
147 161 162 163 164 161 163 168 167 173 183 187 189 195 199 198 197 206 212 213 214 215 214 216 220 222 224 226 224 222 222 226 228 229 227 225 226 226 224 223 222 222 223 223 225 228 227 228 228 226 226 224 223 225 228 230 231 233 238 238 232 231 234 234 232 235 240 245 248 250 254 259 261 262 265 267 265 265 264 261 262 263 261 260 257 256 257 260
150 155 157 161 164 160 160 168 172 176 183 184 187 196 203 202 201 207 213 216 215 215 217 217 217 219 224 227 226 220 218 222 227 230 230 229 229 229 228 227 227 227 227 227 228 227 225 224 222 222 227 229 228 230 233 234 235 234 237 240 237 234 237 239 236 235 239 243 246 249 254 257 257 257 262 267 265 259 255 255 258 261 259 255 252 253 256 258
155 154 154 158 163 161 162 171 178 181 185 186 189 197 202 203 203 206 213 218 217 214 216 218 216 216 220 225 225 219 215 219 224 227 228 227 229 230 231 230 229 230 230 227 225 223 222 221 220 221 228 231 231 234 238 240 241 239 238 242 243 242 243 245 243 240 240 242 243 248 254 258 258 257 258 259 256 253 253 254 255 255 256 253 251 253 255 257
158 157 158 160 164 166 169 175 179 184 190 191 194 198 199 201 205 209 213 215 215 213 214 218 221 221 223 227 228 223 219 220 223 225 226 225 225 227 229 231 230 230 230 229 227 227 228 226 222 224 231 233 233 235 239 242 243 241 241 243 245 246 248 248 245 242 242 243 245 248 252 256 260 256 252 250 250 251 251 252 251 250 250 251 251 252 255 257
152 156 161 164 168 169 170 175 179 185 191 192 196 200 200 203 207 209 210 211 215 217 217 219 223 227 229 231 234 233 228 226 227 228 228 227 228 230 230 231 231 230 231 233 231 229 232 233 230 230 233 236 237 237 238 241 244 242 242 242 240 242 246 247 244 240 240 243 247 248 250 255 260 258 253 250 249 250 251 250 248 245 244 247 249 250 251 253
Height
5722 5722 5723 5724 5725 5726 5727 5728 5730 5731 5733 5735 5736 5738 5739 5741 5743 5745 5747 5748 5750 5752 5754 5757 5759 5761 5763 5765 5768 5770 5772 5774 5777 5780 5781 5782 5785 5786 5788 5790 5792 5794 5796 5797 5799 5800 5802 5803 5804 5806 5807 5809 5810 5811 5812 5813 5814 5816 5818 5820 5819 5819 5821 5822 5822 5822 5823 5825 5825 5826 5829 5832 5835 5836 5836 5836 5836 5835 5837 5838 5839 5838 5838 5840 5840 5840 5840 5841
5716 5717 5718 5719 5720 5721 5722 5723 5725 5726 5728 5730 5731 5733 5735 5736 5738 5740 5742 5744 5746 5748 5750 5752 5754 5757 5759 5761 5764 5766 5768 5771 5774 5775 5776 5779 5781 5782 5785 5786 5788 5790 5792 5794 5795 5797 5798 5800 5801 5803 5804 5805 5807 5808 5809 5810 5812 5813 5815 5816 5816 5817 5818 5819 5819 5818 5821 5823 5823 5825 5828 5830 5832 5833 5833 5833 5834 5834 5835 5837 5836 5835 5836 5837 5837 5837 5838 5837
5710 5711 5712 5713 5714 5715 5716 5718 5720 5721 5723 5725 5726 5728 5730 5731 5733 5735 5737 5739 5741 5743 5746 5748 5750 5753 5755 5757 5760 5762 5764 5767 5770 5771 5771 5775 5777 5778 5781 5783 5784 5786 5788 5790 5792 5793 5795 5796 5798 5799 5801 5802 5804 5805 5806 5808 5809 5811 5813 5813 5813 5815 5815 5816 5817 5817 5819 5821 5822 5824 5826 5829 5830 5830 5829 5830 5832 5831 5831 5834 5833 5832 5835 5835 5833 5834 5835 5833
5704 5704 5706 5707 5708 5710 5711 5713 5714 5716 5718 5720 5721 5723 5725 5727 5728 5730 5732 5734 5736 5739 5741 5744 5746 5748 5750 5753 5755 5758 5760 5763 5766 5766 5768 5771 5773 5775 5777 5778 5781 5782 5784 5786 5788 5790 5791 5793 5794 5796 5797 5799 5801 5802 5803 5806 5807 5808 5810 5809 5810 5813 5813 5813 5814 5816 5818 5819 5820 5822 5823 5825 5827 5827 5827 5828 5830 5828 5828 5831 5831 5830 5831 5831 5831 5831 5832 5831
5697 5698 5699 5701 5702 5704 5705 5707 5709 5711 5713 5715 5717 5718 5720 5722 5723 5725 5727 5730 5732 5734 5737 5739 5741 5744 5746 5749 5751 5753 5756 5759 5762 5762 5764 5767 5769 5771 5773 5775 5777 5778 5780 5782 5784 5786 5787 5789 5791 5793 5794 5795 5798 5799 5800 5803 5804 5806 5807 5806 5807 5810 5810 5811 5813 5815 5816 5817 5819 5820 5820 5821 5823 5824 5825 5826 5827 5825 5825 5828 5827 5826 5826 5828 5829 5829 5829 5828
5690 5692 5693 5695 5696 5698 5700 5702 5704 5706 5708 5710 5712 5713 5715 5717 5719 5720 5722 5725 5727 5730 5732 5735 5737 5739 5742 5745 5747 5749 5752 5755 5758 5758 5761 5763 5765 5767 5769 5771 5773 5774 5777 5778 5780 5782 5784 5786 5787 5789 5791 5792 5795 5796 5798 5799 5801 5803 5804 5804 5805 5807 5808 5809 5811 5812 5814 5815 5817 5817 5817 5818 5820 5822 5822 5824 5824 5821 5822 5826 5825 5823 5822 5824 5827 5827 5826 5824
5683 5685 5686 5688 5690 5692 5694 5696 5698 5701 5703 5705 5707 5709 5710 5712 5714 5716 5718 5720 5722 5725 5728 5730 5733 5735 5738 5741 5743 5746 5748 5751 5753 5754 5757 5759 5761 5763 5765 5767 5769 5771 5773 5775 5777 5779 5780 5782 5784 5786 5788 5790 5792 5793 5795 5796 5797 5800 5801 5801 5803 5804 5805 5807 5808 5809 5812 5814 5815 5815 5815 5815 5817 5819 5820 5821 5821 5818 5819 5823 5821 5818 5820 5822 5823 5824 5822 5821
5676 5678 5680 5682 5684 5686 5688 5690 5693 5695 5698 5700 5702 5704 5706 5708 5709 5711 5713 5715 5717 5720 5723 5726 5728 5731 5734 5737 5740 5742 5745 5747 5749 5750 5753 5755 5757 5759 5761 5764 5766 5768 5770 5771 5773 5775 5777 5779 5781 5783 5785 5787 5788 5790 5791 5793 5794 5797 5799 5799 5800 5802 5803 5804 5806 5807 5809 5812 5813 5813 5813 5814 5814 5815 5817 5817 5818 5817 5817 5820 5816 5814 5819 5821 5819 5819 5819 5818
5669 5671 5673 5675 5678 5680 5682 5685 5687 5690 5692 5695 5697 5699 5701 5703 5705 5707 5709 5711 5713 5716 5719 5721 5724 5727 5730 5733 5736 5738 5741 5744 5746 5748 5750 5752 5754 5756 5758 5760 5763 5764 5766 5768 5770 5772 5774 5776 5778 5781 5782 5783 5784 5786 5788 5790 5792 5794 5795 5796 5797 5799 5800 5802 5804 5805 5806 5808 5810 5811 5812 5812 5812 5812 5814 5815 5815 5815 5814 5815 5813 5811 5817 5819 5816 5816 5815 5814
5663 5665 5667 5669 5671 5674 5677 5679 5682 5685 5687 5690 5692 5695 5697 5698 5700 5702 5704 5707 5709 5712 5714 5717 5720 5723 5726 5729 5732 5735 5738 5740 5742 5745 5746 5748 5751 5753 5755 5757 5759 5761 5763 5765 5767 5769 5771 5773 5775 5777 5778 5779 5781 5783 5785 5788 5790 5790 5791 5793 5795 5796 5798 5800 5801 5803 5804 5806 5807 5808 5809 5809 5810 5810 5811 5812 5812 5811 5810 5810 5810 5810 5814 5815 5814 5814 5812 5812
5656 5658 5660 5663 5666 5669 5671 5674 5677 5680 5682 5685 5687 5690 5692 5694 5696 5698 5700 5703 5705 5708 5710 5712 5716 5719 5722 5725 5728 5731 5734 5736 5738 5741 5742 5745 5747 5750 5752 5754 5756 5758 5760 5762 5764 5766 5768 5770 5771 5773 5775 5777 5779 5781 5783 5785 5786 5787 5789 5791 5793 5794 5796 5798 5799 5801 5802 5803 5804 5805 5806 5807 5808 5808 5808 5808 5808 5808 5806 5806 5808 5808 5810 5811 5811 5811 5810 5810
5649 5652 5654 5657 5660 5663 5666 5669 5672 5675 5677 5680 5683 5686 5688 5690 5691 5694 5696 5699 5701 5703 5706 5708 5712 5715 5718 5722 5724 5726 5730 5733 5735 5736 5738 5741 5743 5746 5748 5750 5753 5755 5757 5759 5761 5763 5765 5767 5768 5770 5772 5774 5777 5779 5780 5782 5783 5785 5787 5789 5791 5793 5794 5796 5797 5799 5800 5801 5801 5802 5804 5805 5805 5805 5805 5804 5804 5804 5803 5803 5805 5806 5807 5808 5808 5809 5809 5808
5643 5646 5649 5652 5655 5658 5662 5665 5667 5670 5673 5675 5678 5681 5683 5686 5687 5689 5692 5694 5697 5699 5702 5704 5708 5711 5715 5717 5719 5722 5726 5729 5730 5731 5735 5738 5740 5742 5745 5747 5749 5751 5754 5756 5758 5760 5762 5764 5766 5768 5770 5772 5775 5776 5777 5780 5781 5783 5785 5787 5789 5791 5792 5794 5795 5796 5797 5798 5798 5799 5801 5802 5802 5803 5802 5801 5801 5801 5800 5800 5802 5804 5806 5806 5805 5805 5806 5806
5638 5640 5643 5647 5650 5653 5657 5660 5662 5665 5668 5671 5674 5677 5679 5682 5684 5685 5688 5690 5693 5695 5698 5701 5704 5707 5710 5712 5715 5719 5722 5724 5726 5728 5731 5734 5736 5739 5741 5744 5746 5748 5751 5753 5755 5758 5760 5762 5764 5766 5768 5771 5772 5772 5775 5778 5779 5780 5783 5785 5787 5789 5790 5791 5792 5794 5795 5795 5796 5797 5798 5798 5799 5800 5800 5799 5799 5798 5797 5797 5799 5802 5804 5803 5802 5802 5803 5803
5633 5635 5638 5642 5645 5649 5652 5655 5658 5661 5664 5667 5670 5673 5676 5678 5680 5682 5684 5686 5689 5692 5694 5697 5700 5704 5707 5709 5712 5716 5719 5721 5723 5726 5728 5731 5733 5735 5738 5741 5743 5746 5748 5750 5753 5755 5757 5759 5761 5763 5765 5767 5768 5769 5773 5776 5777 5779 5781 5783 5785 5787 5787 5788 5789 5791 5792 5792 5792 5793 5795 5796 5796 5797 5797 5796 5796 5795 5794 5793 5796 5800 5800 5800 5800 5799 5799 5801
5628 5631 5634 5637 5640 5644 5647 5650 5653 5657 5660 5663 5666 5669 5672 5674 5676 5678 5680 5683 5686 5688 5691 5694 5697 5701 5703 5706 5709 5713 5716 5718 5720 5723 5725 5728 5730 5732 5735 5737 5740 5743 5745 5748 5750 5752 5754 5756 5758 5760 5762 5764 5765 5767 5771 5773 5775 5777 5779 5782 5783 5784 5785 5785 5785 5787 5788 5788 5789 5790 5792 5794 5793 5794 5793 5793 5793 5793 5791 5791 5794 5797 5797 5798 5798 5797 5797 5798
5623 5626 5629 5632 5636 5639 5642 5646 5649 5653 5657 5659 5662 5665 5668 5671 5673 5675 5677 5680 5682 5685 5688 5691 5694 5698 5700 5703 5707 5709 5712 5714 5717 5720 5722 5725 5727 5729 5732 5735 5737 5740 5742 5745 5747 5749 5751 5753 5755 5757 5759 5761 5763 5766 5768 5771 5773 5776 5778 5779 5780 5781 5782 5781 5782 5784 5785 5785 5786 5787 5790 5792 5792 5791 5791 5790 5790 5790 5789 5788 5791 5794 5794 5795 5796 5796 5796 5796
5618 5621 5625 5628 5631 5634 5638 5642 5645 5649 5653 5656 5659 5662 5665 5668 5670 5672 5674 5677 5680 5683 5686 5689 5692 5694 5697 5700 5703 5704 5708 5712 5715 5717 5720 5722 5725 5727 5729 5732 5734 5737 5740 5742 5744 5746 5748 5750 5752 5754 5756 5759 5761 5764 5767 5770 5772 5773 5775 5775 5776 5778 5779 5779 5780 5782 5783 5783 5783 5784 5786 5789 5790 5789 5789 5788 5788 5788 5788 5787 5788 5790 5791 5792 5793 5794 5794 5794
5614 5617 5620 5624 5627 5630 5634 5638 5642 5645 5649 5652 5655 5659 5662 5664 5667 5669 5672 5674 5678 5680 5683 5686 5689 5692 5694 5698 5700 5702 5707 5710 5712 5715 5717 5720 5722 5724 5727 5729 5732 5734 5737 5739 5741 5743 5746 5748 5749 5752 5755 5758 5760 5763 5765 5767 5768 5769 5770 5771 5773 5774 5776 5779 5780 5780 5780 5781 5781 5781 5782 5785 5788 5788 5787 5786 5786 5786 5786 5786 5786 5787 5788 5789 5790 5791 5792 5792
5610 5613 5616 5619 5623 5626 5630 5634 5638 5642 5646 5649 5652 5655 5658 5661 5664 5667 5669 5673 5676 5678 5680 5684 5687 5689 5692 5695 5697 5700 5705 5707 5709 5711 5714 5717 5719 5722 5724 5726 5729 5732 5734 5737 5739 5741 5743 5745 5747 5751 5754 5757 5759 5760 5762 5763 5764 5765 5767 5767 5768 5770 5775 5778 5779 5780 5780 5780 5779 5778 5779 5781 5784 5785 5785 5785 5784 5784 5784 5784 5784 5783 5784 5785 5786 5787 5788 5789
5606 5609 5611 5615 5619 5622 5626 5630 5634 5639 5642 5646 5649 5652 5655 5659 5662 5665 5668 5671 5673 5676 5678 5682 5685 5686 5689 5692 5693 5698 5702 5703 5705 5708 5711 5714 5717 5719 5722 5724 5727 5729 5732 5734 5735 5737 5740 5743 5747 5750 5752 5754 5755 5756 5758 5760 5762 5763 5763 5764 5765 5768 5773 5775 5777 5779 5778 5777 5777 5776 5776 5778 5779 5782 5784 5784 5783 5783 5783 5783 5781 5779 5779 5780 5782 5784 5785 5787
5602 5605 5607 5611 5615 5619 5623 5627 5631 5635 5639 5643 5646 5649 5653 5657 5660 5663 5666 5669 5671 5673 5676 5680 5682 5684 5687 5688 5691 5696 5699 5700 5703 5706 5709 5711 5714 5717 5720 5721 5724 5727 5728 5730 5732 5734 5739 5743 5746 5748 5748 5749 5751 5753 5755 5757 5759 5760 5761 5761 5763 5768 5771 5772 5774 5776 5775 5776 5777 5775 5773 5775 5777 5780 5781 5782 5783 5782 5782 5782 5781 5778 5776 5776 5778 5780 5783 5784
5599 5602 5604 5607 5611 5615 5619 5623 5628 5632 5636 5640 5643 5647 5652 5655 5657 5661 5664 5666 5668 5671 5674 5677 5680 5682 5684 5686 5690 5695 5697 5698 5700 5704 5706 5709 5712 5714 5717 5719 5721 5723 5724 5727 5730 5734 5738 5741 5742 5743 5743 5745 5747 5750 5753 5754 5755 5757 5758 5759 5762 5767 5769 5770 5771 5772 5773 5774 5774 5772 5770 5771 5774 5777 5778 5779 5780 5780 5780 5782 5781 5779 5776 5774 5775 5777 5779 5781
5595 5598 5601 5604 5608 5612 5616 5620 5625 5630 5634 5638 5641 5645 5650 5652 5655 5658 5661 5663 5666 5669 5672 5675 5678 5680 5682 5684 5688 5692 5694 5695 5697 5701 5705 5707 5708 5711 5714 5716 5718 5720 5722 5724 5729 5733 5736 5737 5738 5739 5740 5742 5745 5747 5749 5750 5752 5754 5755 5757 5762 5765 5766 5767 5769 5770 5771 5771 5769 5769 5768 5768 5771 5774 5775 5776 5777 5778 5778 5779 5780 5779 5777 5774 5772 5773 5775 5777
5591 5594 5597 5601 5605 5609 5613 5618 5623 5627 5631 5635 5639 5644 5648 5650 5653 5656 5658 5661 5664 5667 5669 5672 5675 5678 5680 5681 5685 5689 5690 5692 5695 5699 5703 5705 5705 5708 5712 5714 5715 5717 5720 5723 5726 5731 5733 5734 5735 5736 5739 5740 5742 5744 5745 5746 5749 5752 5753 5755 5760 5763 5762 5764 5766 5767 5766 5766 5767 5767 5767 5766 5768 5771 5773 5774 5775 5776 5775 5776 5777 5779 5777 5773 5769 5769 5770 5772
5588 5590 5595 5599 5602 5606 5611 5616 5620 5624 5628 5632 5637 5642 5645 5648 5651 5654 5656 5659 5662 5664 5667 5670 5673 5675 5677 5680 5683 5686 5687 5690 5692 5695 5700 5702 5702 5706 5709 5711 5713 5716 5718 5720 5723 5727 5730 5731 5732 5734 5736 5737 5739 5740 5741 5743 5747 5750 5751 5754 5757 5759 5759 5761 5762 5763 5763 5764 5766 5765 5764 5764 5765 5768 5771 5772 5773 5773 5771 5772 5772 5773 5772 5769 5766 5766 5768 5769
5585 5588 5593 5597 5600 5605 5609 5613 5618 5623 5627 5632 5636 5640 5643 5646 5648 5651 5655 5658 5660 5662 5665 5668 5671 5673 5675 5677 5680 5682 5685 5688 5689 5691 5697 5700 5700 5704 5706 5708 5711 5713 5716 5718 5719 5723 5727 5729 5730 5731 5732 5734 5735 5737 5739 5741 5744 5747 5749 5752 5754 5755 5756 5757 5760 5762 5762 5763 5763 5763 5762 5761 5761 5766 5769 5770 5771 5770 5768 5768 5767 5766 5767 5766 5766 5766 5767 5768
5582 5586 5591 5595 5598 5603 5608 5612 5617 5621 5626 5631 5635 5638 5641 5643 5646 5650 5653 5656 5658 5661 5664 5666 5669 5670 5672 5675 5678 5680 5683 5686 5687 5689 5695 5698 5697 5700 5703 5706 5709 5711 5713 5715 5716 5721 5725 5726 5727 5728 5729 5730 5733 5736 5738 5739 5741 5744 5747 5748 5749 5750 5751 5754 5756 5757 5757 5757 5758 5760 5761 5759 5760 5765 5768 5767 5768 5766 5766 5766 5765 5764 5765 5765 5765 5765 5766 5767
5581 5585 5589 5593 5597 5602 5607 5611 5615 5620 5624 5628 5632 5635 5639 5642 5645 5648 5652 5654 5656 5659 5662 5665 5667 5669 5670 5673 5676 5678 5681 5684 5685 5687 5691 5694 5694 5697 5701 5703 5707 5708 5709 5711 5714 5718 5721 5724 5725 5725 5726 5728 5731 5735 5736 5736 5738 5742 5744 5744 5745 5746 5748 5750 5752 5753 5754 5753 5754 5758 5759 5759 5759 5762 5764 5763 5762 5762 5764 5766 5765 5765 5765 5765 5765 5764 5764 5764
5580 5584 5588 5592 5596 5601 5605 5609 5614 5619 5623 5626 5629 5633 5636 5640 5644 5647 5650 5653 5655 5658 5661 5663 5665 5667 5669 5672 5674 5677 5679 5681 5682 5683 5687 5691 5692 5695 5698 5700 5703 5705 5706 5709 5712 5715 5718 5721 5722 5722 5724 5727 5729 5731 5732 5734 5737 5740 5740 5740 5743 5744 5744 5746 5749 5751 5751 5750 5752 5756 5757 5757 5757 5758 5760 5759 5759 5760 5763 5764 5765 5765 5765 5764 5764 5763 5762 5762
5579 5583 5586 5591 5595 5599 5603 5608 5613 5618 5621 5626 5629 5632 5635 5639 5643 5646 5649 5652 5654 5656 5659 5661 5663 5665 5668 5670 5673 5675 5678 5678 5679 5681 5686 5689 5690 5692 5695 5697 5699 5702 5703 5706 5709 5713 5716 5717 5718 5720 5721 5724 5726 5728 5730 5732 5734 5736 5737 5738 5740 5742 5742 5743 5747 5748 5747 5748 5751 5754 5754 5754 5754 5754 5755 5756 5757 5759 5761 5762 5762 5762 5762 5761 5760 5761 5761 5760
5578 5582 5586 5590 5594 5598 5603 5607 5612 5615 5619 5623 5627 5631 5635 5638 5641 5645 5648 5650 5652 5654 5657 5659 5661 5664 5666 5668 5671 5673 5675 5676 5677 5680 5684 5687 5689 5691 5694 5696 5698 5701 5702 5705 5708 5711 5713 5713 5716 5719 5719 5721 5724 5727 5728 5729 5731 5733 5735 5736 5738 5739 5740 5741 5744 5745 5745 5747 5749 5750 5750 5751 5751 5750 5751 5752 5754 5756 5757 5758 5758 5758 5758 5757 5756 5758 5758 5757
5578 5581 5585 5589 5593 5597 5601 5605 5609 5613 5617 5621 5625 5630 5633 5637 5641 5644 5647 5649 5651 5654 5657 5658 5660 5663 5664 5667 5669 5671 5674 5675 5676 5679 5683 5685 5687 5690 5692 5694 5696 5699 5702 5704 5706 5709 5711 5711 5714 5716 5717 5720 5723 5724 5726 5727 5729 5731 5733 5734 5735 5737 5738 5739 5741 5742 5743 5745 5746 5746 5747 5748 5748 5748 5748 5749 5750 5752 5753 5753 5754 5755 5754 5753 5753 5755 5755 5754
5577 5581 5585 5589 5592 5596 5600 5604 5608 5612 5617 5620 5624 5628 5632 5636 5640 5643 5646 5648 5650 5654 5657 5658 5659 5662 5663 5665 5667 5670 5672 5673 5675 5678 5680 5682 5685 5687 5690 5692 5694 5697 5700 5702 5703 5706 5708 5710 5711 5713 5716 5719 5721 5722 5723 5725 5726 5727 5730 5731 5732 5734 5736 5737 5738 5739 5740 5742 5742 5743 5745 5745 5745 5746 5747 5747 5748 5749 5749 5750 5751 5752 5751 5750 5751 5752 5752 5752
5578 5581 5585 5588 5592 5596 5600 5604 5607 5611 5616 5620 5623 5627 5631 5636 5639 5642 5645 5647 5649 5654 5658 5658 5658 5660 5662 5664 5666 5669 5672 5672 5674 5677 5679 5680 5683 5686 5689 5691 5692 5695 5698 5699 5701 5703 5705 5708 5711 5712 5714 5717 5718 5719 5721 5722 5723 5724 5726 5729 5730 5732 5734 5735 5736 5737 5737 5738 5739 5741 5742 5743 5743 5744 5744 5745 5745 5745 5746 5748 5749 5749 5748 5748 5748 5749 5749 5749
5578 5581 5585 5588 5592 5596 5599 5603 5607 5611 5615 5618 5622 5627 5631 5634 5637 5639 5641 5644 5648 5652 5656 5657 5658 5660 5662 5663 5665 5668 5671 5673 5673 5676 5678 5680 5682 5685 5687 5689 5691 5694 5697 5698 5700 5702 5704 5707 5709 5710 5711 5713 5715 5717 5719 5720 5722 5722 5723 5726 5729 5730 5731 5732 5734 5735 5735 5736 5737 5738 5740 5740 5741 5741 5741 5742 5742 5742 5744 5746 5746 5746 5745 5744 5745 5745 5746 5747
5578 5581 5585 5588 5592 5595 5599 5603 5606 5610 5614 5618 5622 5626 5629 5632 5635 5637 5639 5642 5646 5648 5652 5655 5657 5660 5661 5663 5666 5667 5670 5672 5672 5674 5677 5679 5681 5684 5686 5688 5690 5692 5695 5697 5699 5701 5702 5705 5706 5708 5710 5711 5713 5715 5716 5719 5721 5721 5722 5724 5727 5728 5729 5730 5731 5732 5732 5733 5734 5735 5736 5737 5737 5737 5737 5738 5739 5739 5741 5741 5742 5742 5741 5741 5741 5742 5743 5743
5578 5581 5585 5588 5592 5595 5599 5602 5606 5609 5613 5617 5621 5625 5628 5631 5632 5633 5636 5641 5644 5646 5650 5653 5655 5659 5661 5664 5667 5667 5669 5671 5671 5673 5676 5677 5679 5682 5683 5685 5688 5691 5693 5695 5696 5698 5699 5702 5704 5706 5709 5710 5711 5713 5714 5717 5719 5720 5721 5722 5724 5726 5727 5727 5728 5729 5729 5731 5732 5733 5733 5733 5734 5734 5735 5736 5737 5738 5738 5738 5738 5738 5738 5738 5738 5738 5739 5739
5578 5581 5584 5588 5591 5595 5599 5602 5605 5609 5613 5617 5621 5624 5627 5631 5631 5632 5635 5639 5643 5646 5650 5651 5652 5655 5658 5662 5666 5667 5668 5670 5670 5673 5675 5676 5677 5678 5680 5682 5684 5687 5689 5690 5693 5695 5696 5699 5701 5704 5707 5709 5709 5711 5713 5715 5718 5719 5720 5720 5721 5723 5724 5725 5726 5726 5727 5729 5729 5730 5730 5730 5731 5732 5733 5734 5734 5735 5735 5735 5736 5736 5736 5735 5734 5734 5734 5735
5578 5581 5584 5588 5591 5594 5598 5601 5605 5609 5613 5617 5621 5623 5626 5629 5631 5633 5636 5638 5641 5646 5648 5647 5649 5652 5655 5659 5662 5663 5664 5666 5668 5671 5673 5673 5674 5675 5677 5679 5680 5682 5683 5685 5689 5691 5692 5695 5699 5702 5705 5706 5707 5709 5711 5714 5716 5717 5717 5719 5720 5721 5721 5722 5722 5723 5725 5726 5726 5727 5727 5727 5728 5730 5731 5731 5732 5732 5733 5733 5733 5734 5734 5733 5731 5730 5730 5731
5578 5582 5585 5589 5591 5594 5598 5602 5606 5610 5613 5617 5620 5622 5625 5626 5627 5631 5636 5637 5640 5645 5647 5647 5649 5651 5653 5655 5657 5659 5660 5662 5664 5667 5669 5670 5672 5672 5674 5676 5678 5681 5683 5684 5687 5688 5689 5691 5695 5699 5701 5702 5705 5708 5711 5713 5713 5711 5712 5715 5717 5716 5717 5718 5719 5721 5723 5723 5724 5724 5724 5724 5725 5727 5728 5729 5730 5730 5731 5731 5731 5731 5731 5731 5729 5728 5728 5729
5580 5583 5586 5589 5592 5595 5599 5603 5606 5610 5613 5616 5618 5620 5623 5624 5625 5631 5635 5636 5639 5643 5645 5646 5649 5651 5651 5653 5654 5655 5656 5658 5661 5663 5665 5667 5669 5671 5672 5673 5676 5679 5682 5684 5685 5685 5686 5687 5691 5695 5698 5700 5703 5706 5708 5708 5706 5706 5708 5710 5711 5712 5713 5714 5716 5718 5719 5720 5720 5721 5721 5721 5722 5724 5726 5727 5727 5728 5729 5729 5728 5728 5729 5730 5729 5728 5728 5728
5580 5584 5587 5589 5592 5595 5598 5602 5605 5609 5612 5614 5616 5618 5622 5624 5626 5631 5633 5635 5638 5641 5642 5644 5647 5649 5650 5651 5652 5653 5654 5656 5657 5659 5662 5664 5666 5668 5669 5672 5675 5677 5680 5681 5682 5683 5684 5686 5689 5693 5695 5698 5699 5700 5701 5701 5701 5702 5704 5706 5707 5709 5711 5712 5713 5715 5716 5716 5717 5718 5719 5718 5719 5721 5723 5724 5725 5726 5727 5727 5727 5727 5727 5729 5729 5729 5728 5727
5581 5585 5587 5589 5592 5595 5599 5602 5605 5608 5610 5613 5616 5619 5622 5624 5627 5630 5631 5633 5635 5637 5640 5642 5645 5647 5648 5650 5651 5652 5654 5655 5655 5657 5660 5661 5663 5665 5667 5671 5674 5675 5677 5678 5680 5682 5684 5685 5687 5690 5692 5694 5696 5696 5696 5697 5698 5700 5701 5702 5704 5706 5708 5709 5710 5712 5714 5714 5714 5715 5716 5716 5717 5718 5720 5723 5723 5723 5724 5725 5725 5725 5725 5726 5727 5727 5727 5726
5582 5586 5587 5590 5593 5596 5599 5603 5606 5608 5610 5613 5616 5619 5621 5623 5625 5627 5629 5630 5632 5634 5637 5639 5641 5643 5646 5648 5650 5652 5653 5653 5654 5656 5658 5660 5661 5663 5665 5669 5672 5673 5674 5676 5678 5680 5682 5683 5685 5687 5689 5691 5692 5693 5693 5694 5695 5696 5698 5700 5702 5703 5705 5707 5708 5709 5711 5711 5712 5713 5714 5714 5715 5716 5718 5721 5722 5722 5723 5723 5723 5724 5724 5724 5724 5724 5725 5725
5584 5586 5588 5591 5594 5596 5599 5602 5605 5608 5611 5613 5615 5618 5619 5621 5623 5625 5627 5628 5630 5633 5636 5638 5639 5641 5643 5645 5647 5649 5650 5651 5652 5654 5656 5657 5659 5661 5663 5666 5668 5670 5672 5674 5675 5678 5680 5681 5682 5684 5686 5688 5690 5691 5691 5692 5692 5694 5696 5698 5700 5701 5703 5705 5706 5707 5708 5709 5709 5711 5712 5713 5714 5715 5717 5718 5720 5721 5722 5722 5722 5723 5722 5722 5721 5722 5722 5722
5584 5587 5589 5591 5594 5597 5600 5602 5605 5608 5610 5612 5614 5616 5618 5620 5621 5623 5625 5627 5629 5631 5634 5635 5636 5638 5641 5642 5645 5647 5648 5650 5650 5651 5652 5654 5657 5659 5661 5663 5664 5667 5669 5671 5673 5675 5677 5678 5680 5682 5684 5686 5687 5688 5689 5689 5690 5692 5694 5696 5698 5700 5701 5703 5704 5704 5706 5707 5707 5708 5710 5711 5712 5713 5714 5715 5717 5718 5719 5720 5721 5721 5721 5720 5720 5720 5720 5720
5585 5587 5589 5592 5594 5597 5600 5603 5606 5608 5610 5611 5613 5615 5617 5618 5620 5622 5623 5625 5627 5629 5631 5633 5634 5637 5638 5639 5641 5644 5646 5647 5647 5647 5650 5653 5655 5657 5659 5660 5662 5664 5666 5669 5670 5671 5673 5675 5677 5680 5682 5682 5684 5685 5685 5686 5688 5690 5691 5693 5696 5697 5699 5701 5702 5702 5704 5705 5705 5706 5708 5709 5710 5711 5712 5713 5714 5715 5716 5718 5718 5718 5718 5719 5718 5718 5718 5718
5585 5587 5590 5592 5595 5597 5600 5603 5605 5607 5609 5610 5612 5614 5615 5617 5619 5621 5622 5623 5625 5627 5629 5631 5633 5635 5636 5636 5637 5639 5642 5643 5644 5645 5648 5652 5654 5655 5657 5659 5660 5662 5663 5666 5667 5668 5670 5672 5674 5677 5678 5679 5680 5681 5682 5684 5686 5688 5689 5690 5693 5695 5697 5698 5699 5700 5702 5702 5703 5703 5705 5706 5707 5708 5709 5710 5712 5713 5714 5715 5716 5716 5716 5716 5716 5716 5716 5716
5586 5588 5590 5593 5595 5598 5600 5602 5604 5606 5608 5610 5611 5613 5614 5616 5618 5619 5620 5622 5623 5625 5627 5629 5630 5632 5632 5632 5633 5636 5639 5640 5642 5643 5646 5649 5651 5653 5654 5656 5658 5659 5660 5662 5663 5665 5667 5668 5671 5673 5674 5675 5677 5678 5679 5681 5683 5685 5686 5688 5690 5692 5694 5695 5696 5698 5699 5700 5701 5701 5702 5703 5704 5705 5706 5707 5709 5711 5712 5712 5713 5713 5714 5714 5714 5714 5715 5715
5587 5589 5591 5593 5595 5597 5599 5601 5604 5605 5607 5609 5611 5612 5614 5615 5616 5618 5619 5621 5622 5624 5625 5627 5628 5630 5630 5630 5632 5635 5637 5638 5639 5641 5643 5645 5647 5650 5652 5654 5655 5657 5658 5660 5661 5662 5664 5666 5668 5670 5670 5672 5674 5675 5676 5678 5679 5681 5683 5685 5687 5689 5691 5691 5692 5693 5695 5696 5698 5698 5699 5701 5701 5702 5703 5704 5705 5707 5708 5709 5710 5710 5711 5712 5712 5712 5712 5713
5587 5589 5591 5593 5595 5597 5598 5600 5602 5604 5606 5608 5610 5611 5613 5614 5615 5617 5619 5620 5621 5622 5624 5626 5627 5628 5629 5630 5632 5634 5636 5637 5639 5641 5642 5644 5646 5648 5650 5652 5653 5654 5656 5657 5659 5660 5661 5663 5665 5667 5668 5669 5671 5672 5674 5675 5676 5678 5679 5681 5684 5686 5687 5687 5688 5689 5691 5692 5694 5695 5696 5698 5699 5699 5700 5701 5702 5703 5704 5705 5706 5707 5708 5709 5710 5710 5710 5710